Location: CCZU
(31.6840°N, 119.9550°E)
Time: 10:35:11
(UTC+08:00)

Hubble Space Telescope - Visible Passes

Search period start: 25 September 2022 00:00
Search period end: 05 October 2022 00:00
Orbit: 532 x 535 km, 28.5° (Epoch: 23 September)

Date Brightness Start Highest point End Pass type
(mag) Time Alt. Az. Time Alt. Az. Time Alt. Az.
25 Sep 1.8 18:32:26 10° SW 18:36:04 30° SSE 18:38:55 14° ESE visible
25 Sep 3.1 20:12:52 10° WSW 20:14:10 19° WSW 20:14:10 19° WSW visible
26 Sep 1.7 18:20:04 10° SW 18:23:48 35° SSE 18:27:26 11° E visible
26 Sep 2.6 20:00:39 10° WSW 20:02:40 27° WSW 20:02:40 27° WSW visible
27 Sep 1.9 19:48:25 10° WSW 19:51:09 37° WSW 19:51:09 37° WSW visible
28 Sep 1.4 19:36:11 10° W 19:39:35 48° SW 19:39:35 48° SW visible
29 Sep 1.1 19:23:58 10° W 19:27:57 51° S 19:28:01 51° S visible
30 Sep 1.2 19:11:46 10° W 19:15:42 48° S 19:16:26 42° SSE visible
01 Oct 1.4 18:59:32 10° W 19:03:27 44° S 19:04:53 31° SE visible
02 Oct 1.7 18:47:21 10° W 18:51:11 39° SSW 18:53:21 21° SE visible
03 Oct 1.9 18:35:10 10° W 18:38:55 35° SSW 18:41:53 14° SE visible
04 Oct 2.2 18:23:00 10° WSW 18:26:36 30° SSW 18:30:13 10° SE visible
